Regional Weather Roundup
Issued by NWS

Home | Current Version | Previous Version | Text Only | Print | Product List | Glossary Off
Versions: 1 2 3 4 5 6 7 8 9 10 11 12 13 14 15 16 17 18 19 20 21 22 23 24 25 26 27 28

000
ASUS45 KSLC 161510
RWRUT

UTAH REGIONAL WEATHER ROUNDUP
NATIONAL WEATHER SERVICE SALT LAKE CITY UT
900 AM MDT WED AUG 16 2017

UTZ001>011-023>025-161600-

NORTHERN UTAH

CITY           SKY/WX    TMP DP  RH WIND       PRES   REMARKS
BRIGHAM CITY   SUNNY     62  44  52 CALM      30.09S
HILL AFB       SUNNY     60  35  39 E18       30.11R
LOGAN          SUNNY     60  47  61 NW5       30.11R
OGDEN          SUNNY     67  37  33 CALM      30.09R
SALT LAKE CITY MOSUNNY   70  43  37 SE9       30.08R
TOOELE VALLEY  MOSUNNY   70  37  30 S6        30.09R
WENDOVER       CLOUDY    69  36  29 E6        30.07R
HEBER CITY     SUNNY     54  41  62 CALM      30.19R
WEST JORDAN    SUNNY     67  53  60 SE9       30.11R

$$

UTZ011>015-024>027-161600-

CENTRAL/NORTHEAST UTAH

CITY           SKY/WX    TMP DP  RH WIND       PRES   REMARKS
PROVO AIRPORT  SUNNY     63  46  54 S5        30.13R
MOAB/CANYONLAN SUNNY     71  44  37 S5        30.08R
DELTA          SUNNY     64  41  42 NE3       30.10S
PRICE          SUNNY     62  44  51 CALM      30.17R
RICHFIELD      SUNNY     61  45  55 CALM      30.18R
ROOSEVELT      SUNNY     55  50  82 CALM      30.20S
VERNAL         SUNNY     59  49  69 S3        30.19R

$$

UTZ013>016-019>022-027-161600-

SOUTHERN UTAH

CITY           SKY/WX    TMP DP  RH WIND       PRES   REMARKS
BRYCE CANYON   SUNNY     57  37  47 CALM      30.29R
CEDAR CITY     SUNNY     63  38  39 N3        30.15R
MILFORD        SUNNY     63  40  42 S10       30.12R
ST GEORGE      SUNNY     74  37  26 E6        30.02R
HANKSVILLE     SUNNY     64  36  34 CALM      30.12R
KANAB          SUNNY     63  36  36 CALM      30.17R
BLANDING       SUNNY     65  32  29 CALM      30.25R

$$

REGIONAL REPORTS     COLORADO/ARIZONA

CITY           SKY/WX    TMP DP  RH WIND       PRES   REMARKS
CRAIG, CO      SUNNY     54  47  77 CALM      30.23R
GRAND JUNCTION SUNNY     68  47  46 SE8       30.12R
RIFLE, CO      SUNNY     63  45  51 CALM      30.17R
MONTROSE, CO   SUNNY     62  38  40 CALM      30.19R
CORTEZ, CO     SUNNY     60  39  45 CALM      30.19R
COLORADO CITY    N/A     66  43  42 CALM      30.15R
PAGE, AZ       SUNNY     72  30  21 SE3       30.08R
GRAND CANYON   SUNNY     62  34  35 CALM      30.24R
KINGMAN, AZ    SUNNY     77  38  24 E17       30.01R
FLAGSTAFF, AZ  MOSUNNY   60  41  49 CALM      30.27R

$$

REGIONAL REPORTS    NEVADA/IDAHO/WYOMING

CITY           SKY/WX    TMP DP  RH WIND       PRES   REMARKS
LAS VEGAS, NV  SUNNY     83  41  22 NW6       29.92R
ELY, NY        CLOUDY    59  35  40 S3        30.18R
ELKO, NV       CLOUDY    62  34  35 W5        30.10R
POCATELLO, ID  SUNNY     59  43  55 CALM      30.11R
BURLEY, ID     SUNNY     58  47  66 CALM      30.06R
FORT BRIDGER,    N/A     56  41  56 CALM      30.28R
EVANSTON, WY   SUNNY     55  32  41 CALM      30.25R
ROCK SPRINGS,  SUNNY     56  47  71 CALM      30.23R
KEMMERER, WY     N/A     52  41  66 N5        30.26R

$$




USA.gov is the U.S. government's official web portal to all federal, state and local government web resources and services.